Time,TemperatureF,DewpointF,PressureIn,WindDirection,WindDirectionDegrees,WindSpeedMPH,WindSpeedGustMPH,Humidity,HourlyPrecipIn,Conditions,Clouds,dailyrainin,SoftwareType,DateUTC
2013-03-15 00:00:00,38.5,16.3,30.12,North,0,0.0,3.0,40,0.00,,CLR,0.00,VWS V14.00,2013-03-15 04:00:00,
2013-03-15 00:15:00,37.9,17.4,30.12,North,0,0.0,1.0,43,0.00,,CLR,0.00,VWS V14.00,2013-03-15 04:15:00,
2013-03-15 00:30:00,36.6,16.8,30.11,North,0,0.0,1.0,44,0.00,,CLR,0.00,VWS V14.00,2013-03-15 04:30:00,
2013-03-15 00:45:00,36.6,17.3,30.11,North,0,0.0,2.0,45,0.00,,CLR,0.00,VWS V14.00,2013-03-15 04:45:00,
2013-03-15 01:00:00,37.0,16.6,30.11,North,0,0.0,6.0,43,0.00,,CLR,0.00,VWS V14.00,2013-03-15 05:00:00,
2013-03-15 01:15:00,37.6,16.6,30.10,North,0,1.0,3.0,42,0.00,,CLR,0.00,VWS V14.00,2013-03-15 05:15:00,
2013-03-15 01:30:00,37.8,16.8,30.10,North,0,0.0,3.0,42,0.00,,CLR,0.00,VWS V14.00,2013-03-15 05:30:00,
2013-03-15 01:45:00,37.6,16.6,30.10,North,0,1.0,2.0,42,0.00,,CLR,0.00,VWS V14.00,2013-03-15 05:45:00,
2013-03-15 02:00:00,37.2,17.3,30.10,North,0,0.0,3.0,44,0.00,,CLR,0.00,VWS V14.00,2013-03-15 06:00:00,
2013-03-15 02:15:00,36.3,19.9,30.09,North,0,0.0,1.0,51,0.00,,CLR,0.00,VWS V14.00,2013-03-15 06:15:00,
2013-03-15 02:30:00,34.9,20.0,30.08,North,0,0.0,0.0,54,0.00,,CLR,0.00,VWS V14.00,2013-03-15 06:30:00,
2013-03-15 02:45:00,33.2,19.6,30.08,North,0,0.0,0.0,57,0.00,,CLR,0.00,VWS V14.00,2013-03-15 06:45:00,
2013-03-15 03:00:00,32.1,20.2,30.08,North,0,0.0,0.0,61,0.00,,CLR,0.00,VWS V14.00,2013-03-15 07:00:00,
2013-03-15 03:15:00,31.6,20.5,30.08,North,0,0.0,0.0,63,0.00,,CLR,0.00,VWS V14.00,2013-03-15 07:15:00,
2013-03-15 03:30:00,31.2,20.5,30.08,North,0,0.0,0.0,64,0.00,,CLR,0.00,VWS V14.00,2013-03-15 07:30:00,
2013-03-15 03:45:00,30.9,21.2,30.09,North,0,0.0,0.0,67,0.00,,CLR,0.00,VWS V14.00,2013-03-15 07:45:00,
2013-03-15 04:00:00,31.2,20.5,30.09,North,0,0.0,1.0,64,0.00,,CLR,0.00,VWS V14.00,2013-03-15 08:00:00,
2013-03-15 04:15:00,31.3,20.2,30.10,North,0,0.0,1.0,63,0.00,,CLR,0.00,VWS V14.00,2013-03-15 08:15:00,
2013-03-15 04:45:00,30.7,20.3,30.09,North,0,0.0,0.0,65,0.00,,CLR,0.00,VWS V14.00,2013-03-15 08:45:00,
2013-03-15 05:00:00,30.0,20.7,30.10,North,0,0.0,0.0,68,0.00,,CLR,0.00,VWS V14.00,2013-03-15 09:00:00,
2013-03-15 05:15:00,29.4,20.2,30.10,North,0,0.0,0.0,68,0.00,,CLR,0.00,VWS V14.00,2013-03-15 09:15:00,
2013-03-15 05:30:00,29.0,20.5,30.10,North,0,0.0,0.0,70,0.00,,CLR,0.00,VWS V14.00,2013-03-15 09:30:00,
2013-03-15 05:45:00,28.5,20.3,30.10,North,0,0.0,0.0,71,0.00,,CLR,0.00,VWS V14.00,2013-03-15 09:45:00,
2013-03-15 06:00:00,28.8,21.2,30.10,North,0,0.0,0.0,73,0.00,,CLR,0.00,VWS V14.00,2013-03-15 10:00:00,
2013-03-15 06:15:00,29.4,21.2,30.11,North,0,0.0,0.0,71,0.00,,CLR,0.00,VWS V14.00,2013-03-15 10:15:00,
2013-03-15 06:30:00,29.7,21.1,30.10,North,0,0.0,0.0,70,0.00,,CLR,0.00,VWS V14.00,2013-03-15 10:30:00,
2013-03-15 06:45:00,29.3,21.1,30.11,North,0,0.0,0.0,71,0.00,,CLR,0.00,VWS V14.00,2013-03-15 10:45:00,
2013-03-15 07:00:00,30.1,21.2,30.11,North,0,0.0,0.0,69,0.00,,CLR,0.00,VWS V14.00,2013-03-15 11:00:00,
2013-03-15 07:15:00,30.9,21.9,30.11,North,0,0.0,0.0,69,0.00,,CLR,0.00,VWS V14.00,2013-03-15 11:15:00,
2013-03-15 07:30:00,32.7,20.8,30.12,North,0,0.0,2.0,61,0.00,,CLR,0.00,VWS V14.00,2013-03-15 11:30:00,
2013-03-15 07:45:00,34.6,20.5,30.12,North,0,0.0,2.0,56,0.00,,CLR,0.00,VWS V14.00,2013-03-15 11:45:00,
2013-03-15 08:00:00,36.3,21.3,30.12,North,0,1.0,3.0,54,0.00,,CLR,0.00,VWS V14.00,2013-03-15 12:00:00,
2013-03-15 08:15:00,38.8,20.8,30.11,North,0,2.0,3.0,48,0.00,,CLR,0.00,VWS V14.00,2013-03-15 12:15:00,
2013-03-15 08:30:00,41.1,20.3,30.10,North,0,0.0,6.0,43,0.00,,CLR,0.00,VWS V14.00,2013-03-15 12:30:00,
2013-03-15 08:45:00,43.5,20.2,30.09,North,0,3.0,5.0,39,0.00,,CLR,0.00,VWS V14.00,2013-03-15 12:45:00,
2013-03-15 09:00:00,46.1,21.9,30.08,North,0,1.0,5.0,38,0.00,,CLR,0.00,VWS V14.00,2013-03-15 13:00:00,
2013-03-15 09:15:00,48.0,18.8,30.08,North,0,3.0,10.0,31,0.00,,CLR,0.00,VWS V14.00,2013-03-15 13:15:00,
2013-03-15 09:30:00,49.4,20.8,30.08,North,359,2.0,9.0,32,0.00,,CLR,0.00,VWS V14.00,2013-03-15 13:30:00,
2013-03-15 09:45:00,51.0,19.9,30.06,North,0,4.0,8.0,29,0.00,,CLR,0.00,VWS V14.00,2013-03-15 13:45:00,
2013-03-15 10:00:00,52.0,22.3,30.06,North,359,3.0,10.0,31,0.00,,CLR,0.00,VWS V14.00,2013-03-15 14:00:00,
2013-03-15 10:15:00,51.9,24.4,30.05,North,0,2.0,13.0,34,0.00,,CLR,0.00,VWS V14.00,2013-03-15 14:15:00,
2013-03-15 10:30:00,52.5,25.7,30.05,North,357,6.0,12.0,35,0.00,,CLR,0.00,VWS V14.00,2013-03-15 14:30:00,
2013-03-15 10:45:00,53.2,22.6,30.04,North,359,5.0,11.0,30,0.00,,CLR,0.00,VWS V14.00,2013-03-15 14:45:00,
2013-03-15 11:15:00,55.0,25.7,30.02,North,0,6.0,11.0,32,0.00,,CLR,0.00,VWS V14.00,2013-03-15 15:15:00,
2013-03-15 11:30:00,56.5,24.6,30.02,North,357,5.0,10.0,29,0.00,,CLR,0.00,VWS V14.00,2013-03-15 15:30:00,
2013-03-15 11:45:00,56.9,25.8,30.01,North,356,6.0,10.0,30,0.00,,CLR,0.00,VWS V14.00,2013-03-15 15:45:00,
2013-03-15 12:00:00,57.8,24.9,30.01,North,359,6.0,10.0,28,0.00,,CLR,0.00,VWS V14.00,2013-03-15 16:00:00,
2013-03-15 12:15:00,57.5,25.5,30.01,North,359,6.0,13.0,29,0.00,,CLR,0.00,VWS V14.00,2013-03-15 16:15:00,
2013-03-15 12:30:00,57.5,26.3,29.99,North,349,3.0,11.0,30,0.00,,CLR,0.00,VWS V14.00,2013-03-15 16:30:00,
2013-03-15 12:45:00,58.6,26.5,29.98,North,353,0.0,10.0,29,0.00,,CLR,0.00,VWS V14.00,2013-03-15 16:45:00,
2013-03-15 13:00:00,58.9,28.3,29.96,North,350,1.0,16.0,31,0.00,,CLR,0.00,VWS V14.00,2013-03-15 17:00:00,
2013-03-15 13:15:00,59.9,28.4,29.95,North,352,2.0,11.0,30,0.00,,CLR,0.00,VWS V14.00,2013-03-15 17:15:00,
2013-03-15 13:30:00,59.9,29.2,29.94,North,349,3.0,12.0,31,0.00,,CLR,0.00,VWS V14.00,2013-03-15 17:30:00,
2013-03-15 14:00:00,60.7,29.1,29.92,North,356,9.0,13.0,30,0.00,,CLR,0.00,VWS V14.00,2013-03-15 18:00:00,
2013-03-15 14:15:00,60.9,30.1,29.91,North,356,7.0,14.0,31,0.00,,CLR,0.00,VWS V14.00,2013-03-15 18:15:00,
2013-03-15 14:30:00,61.8,30.9,29.90,North,0,10.0,12.0,31,0.00,,CLR,0.00,VWS V14.00,2013-03-15 18:30:00,
2013-03-15 14:45:00,61.3,30.4,29.89,North,359,3.0,14.0,31,0.00,,CLR,0.00,VWS V14.00,2013-03-15 18:45:00,
2013-03-15 15:00:00,61.3,31.2,29.88,North,359,2.0,14.0,32,0.00,,CLR,0.00,VWS V14.00,2013-03-15 19:00:00,
2013-03-15 15:30:00,62.0,31.0,29.87,North,0,2.0,13.0,31,0.00,,CLR,0.00,VWS V14.00,2013-03-15 19:30:00,
2013-03-15 15:45:00,62.3,31.3,29.87,North,359,2.0,13.0,31,0.00,,CLR,0.00,VWS V14.00,2013-03-15 19:45:00,
2013-03-15 16:00:00,62.6,29.9,29.86,North,359,1.0,12.0,29,0.00,,CLR,0.00,VWS V14.00,2013-03-15 20:00:00,
2013-03-15 16:15:00,62.3,31.3,29.86,North,0,7.0,14.0,31,0.00,,CLR,0.00,VWS V14.00,2013-03-15 20:15:00,
2013-03-15 17:00:00,61.2,31.1,29.86,North,357,2.0,11.0,32,0.00,,CLR,0.00,VWS V14.00,2013-03-15 21:00:00,
2013-03-15 17:30:00,60.5,32.0,29.84,North,0,2.0,10.0,34,0.00,,CLR,0.00,VWS V14.00,2013-03-15 21:30:00,
2013-03-15 17:46:00,61.5,31.4,29.86,North,359,2.0,18.0,32,0.00,,CLR,0.00,VWS V14.00,2013-03-15 21:46:00,
2013-03-15 18:16:00,61.0,31.7,29.85,North,0,1.0,13.0,33,0.00,,CLR,0.00,VWS V14.00,2013-03-15 22:16:00,
2013-03-15 18:30:00,58.1,33.3,29.85,North,0,0.0,6.0,39,0.00,,CLR,0.00,VWS V14.00,2013-03-15 22:30:00,
2013-03-15 19:00:00,54.7,33.2,29.85,North,0,0.0,2.0,44,0.00,,CLR,0.00,VWS V14.00,2013-03-15 23:00:00,
2013-03-15 19:17:00,58.9,32.0,29.85,North,0,6.0,8.0,36,0.00,,CLR,0.00,VWS V14.00,2013-03-15 23:17:00,
2013-03-15 19:30:00,52.0,34.0,29.85,North,0,0.0,0.0,50,0.00,,CLR,0.00,VWS V14.00,2013-03-15 23:30:00,
2013-03-15 19:46:00,56.3,33.5,29.85,North,0,0.0,3.0,42,0.00,,CLR,0.00,VWS V14.00,2013-03-15 23:46:00,
2013-03-15 20:00:00,50.5,34.0,29.85,North,0,0.0,1.0,53,0.00,,CLR,0.00,VWS V14.00,2013-03-16 00:00:00,
2013-03-15 20:15:00,50.2,34.2,29.84,North,0,0.0,2.0,54,0.00,,CLR,0.00,VWS V14.00,2013-03-16 00:15:00,
2013-03-15 20:16:00,53.2,33.5,29.85,North,0,0.0,2.0,47,0.00,,CLR,0.00,VWS V14.00,2013-03-16 00:16:00,
2013-03-15 20:46:00,51.1,33.6,29.85,North,0,0.0,2.0,51,0.00,,CLR,0.00,VWS V14.00,2013-03-16 00:46:00,
2013-03-15 21:00:00,50.1,34.1,29.84,North,0,0.0,5.0,54,0.00,,CLR,0.00,VWS V14.00,2013-03-16 01:00:00,
2013-03-15 21:15:00,49.6,34.1,29.84,North,0,0.0,0.0,55,0.00,,CLR,0.00,VWS V14.00,2013-03-16 01:15:00,
2013-03-15 21:31:00,49.9,33.9,29.84,North,0,0.0,1.0,54,0.00,,CLR,0.00,VWS V14.00,2013-03-16 01:31:00,
2013-03-15 21:46:00,50.2,33.7,29.84,North,0,0.0,3.0,53,0.00,,CLR,0.00,VWS V14.00,2013-03-16 01:46:00,
2013-03-15 22:00:00,47.4,33.0,29.83,North,0,0.0,0.0,57,0.00,,CLR,0.00,VWS V14.00,2013-03-16 02:00:00,
2013-03-15 22:30:00,46.1,34.2,29.82,North,0,0.0,1.0,63,0.00,,CLR,0.00,VWS V14.00,2013-03-16 02:30:00,
2013-03-15 22:31:00,48.8,34.3,29.84,North,0,0.0,0.0,57,0.00,,CLR,0.00,VWS V14.00,2013-03-16 02:31:00,
2013-03-15 22:46:00,48.2,33.7,29.83,North,0,0.0,0.0,57,0.00,,CLR,0.00,VWS V14.00,2013-03-16 02:46:00,
2013-03-15 23:00:00,45.4,34.3,29.82,North,0,0.0,0.0,65,0.00,,CLR,0.00,VWS V14.00,2013-03-16 03:00:00,
2013-03-15 23:15:00,45.2,34.9,29.81,North,0,0.0,1.0,67,0.00,,CLR,0.00,VWS V14.00,2013-03-16 03:15:00,
2013-03-15 23:16:00,46.8,34.9,29.82,North,0,0.0,1.0,63,0.00,,CLR,0.00,VWS V14.00,2013-03-16 03:16:00,
2013-03-15 23:30:00,44.8,34.9,29.80,North,0,0.0,3.0,68,0.00,,CLR,0.00,VWS V14.00,2013-03-16 03:30:00,
2013-03-15 23:45:00,44.8,35.3,29.80,North,0,0.0,1.0,69,0.00,,CLR,0.00,VWS V14.00,2013-03-16 03:45:00,
2013-03-15 23:46:00,45.7,34.2,29.82,North,0,0.0,0.0,64,0.00,,CLR,0.00,VWS V14.00,2013-03-16 03:46:00,